Weather History for Jacksonville, IL

Change the Weather History Date:

Wednesday, March 26, 2014

  Actual Average (KSPI) Record (KSPI)
Temperature  
Mean Temperature 32 °F 46 °F  
Max Temperature 48 °F 57 °F 81 °F (1991)
Min Temperature 16 °F 36 °F 6 °F (1955)
Degree Days  
Heating Degree Days 33 19  
Month to date heating degree days 620  
Since 1 July heating degree days 4891  
Cooling Degree Days 0 0  
Month to date cooling degree days 0  
Year to date cooling degree days 0  
Moisture  
Dew Point 16 °F    
Average Humidity 53    
Maximum Humidity 87    
Minimum Humidity 28    
Precipitation  
Precipitation 0.00 in 0.09 in 1.43 in (1891)
Month to date precipitation 2.16  
Year to date precipitation 5.79  
Snow  
Snow 0.00 in 0.00 in 1.20 in (1934)
Month to date snowfall 2.3  
Since 1 July snowfall 20.4  
Snow Depth -    
Sea Level Pressure  
Sea Level Pressure 30.21 in    
Wind  
Wind Speed 7 mph (SSE)    
Max Wind Speed 22 mph    
Max Gust Speed 31 mph    
Visibility 10 miles    
Events Rain    
T = Trace of Precipitation, MM = Missing Value Source: NWS Daily Summary

Daily Weather History Graph

Daily Weather History Graph

Search for Another Location

Airport:

Trip Planner

Search our weather history database for the weather conditions in past years. The results will help you decide how hot, cold, wet, or windy it might be!

Date:

Astronomy

Mar. 26, 2014 Rise Set
Actual Time 6:54 AM CDT 7:19 PM CDT
Civil Twilight 6:27 AM CDT 7:46 PM CDT
Nautical Twilight 5:55 AM CDT 8:18 PM CDT
Astronomical Twilight 5:23 AM CDT 8:50 PM CDT
Moon 4:02 AM CDT (3/26) 2:58 PM CDT (3/26)
Length of Visible Light 13h 18m
Length of Day
12h 24m
Waning Crescent, 21% of the Moon is Illuminated
Mar 26
Waning Crescent
Mar 30
New
Apr 7
First Quarter
Apr 15
Full
Apr 22
Last Quarter

Hourly Weather History & Observations

Time (CDT) Temp. Windchill Dew Point Humidity Pressure Visibility Wind Dir Wind Speed Gust Speed Precip Events Conditions
12:15 AM 21.2 °F - 11.7 °F 67% 30.30 in 10.0 mi Calm Calm - N/A   Clear
12:35 AM 20.3 °F - 12.6 °F 72% 30.30 in 10.0 mi Calm Calm - N/A   Clear
12:55 AM 20.1 °F - 13.1 °F 74% 30.30 in 10.0 mi Calm Calm - N/A   Clear
1:15 AM 19.2 °F - 14.4 °F 81% 30.30 in 10.0 mi Calm Calm - N/A   Clear
1:35 AM 20.1 °F - 14.0 °F 77% 30.30 in 10.0 mi Calm Calm - N/A   Clear
1:55 AM 19.9 °F - 13.8 °F 77% 30.30 in 10.0 mi Calm Calm - N/A   Clear
2:15 AM 19.0 °F - 14.2 °F 81% 30.31 in 10.0 mi Calm Calm - N/A   Clear
2:35 AM 19.2 °F - 13.8 °F 80% 30.31 in 10.0 mi Calm Calm - N/A   Clear
2:55 AM 19.0 °F 13.9 °F 14.4 °F 82% 30.31 in 10.0 mi SSW 3.5 mph - N/A   Clear
3:15 AM 19.0 °F - 14.0 °F 81% 30.30 in 10.0 mi Calm Calm - N/A   Clear
3:35 AM 17.6 °F - 12.7 °F 81% 30.30 in 10.0 mi Calm Calm - N/A   Clear
3:55 AM 17.8 °F - 12.4 °F 79% 30.30 in 10.0 mi Calm Calm - N/A   Clear
4:15 AM 17.4 °F 12.1 °F 13.1 °F 83% 30.30 in 10.0 mi SE 3.5 mph - N/A   Clear
4:35 AM 16.7 °F 11.2 °F 13.1 °F 86% 30.30 in 10.0 mi SE 3.5 mph - N/A   Clear
4:55 AM 17.8 °F 12.5 °F 13.1 °F 82% 30.30 in 10.0 mi SE 3.5 mph - N/A   Clear
5:15 AM 17.6 °F 10.7 °F 13.8 °F 85% 30.31 in 10.0 mi South 4.6 mph - N/A   Clear
5:35 AM 18.1 °F 10.0 °F 14.9 °F 87% 30.31 in 10.0 mi South 5.8 mph - N/A   Clear
5:55 AM 19.0 °F 12.3 °F 13.6 °F 79% 30.32 in 10.0 mi South 4.6 mph - N/A   Clear
6:15 AM 19.8 °F 14.7 °F 13.6 °F 77% 30.32 in 10.0 mi South 3.5 mph - N/A   Clear
6:35 AM 19.9 °F 13.4 °F 13.1 °F 75% 30.32 in 10.0 mi SSE 4.6 mph - N/A   Clear
6:55 AM 19.6 °F 11.7 °F 12.9 °F 75% 30.32 in 10.0 mi SSE 5.8 mph - N/A   Clear
7:15 AM 19.6 °F 11.7 °F 13.6 °F 78% 30.32 in 10.0 mi SE 5.8 mph - N/A   Clear
7:35 AM 21.4 °F 13.8 °F 14.5 °F 75% 30.33 in 10.0 mi SE 5.8 mph - N/A   Clear
7:55 AM 23.5 °F 17.6 °F 15.4 °F 71% 30.33 in 10.0 mi SE 4.6 mph - N/A   Clear
8:15 AM 25.3 °F 16.0 °F 15.6 °F 67% 30.33 in 10.0 mi South 9.2 mph - N/A   Clear
8:35 AM 26.2 °F 17.1 °F 15.3 °F 63% 30.33 in 10.0 mi SSE 9.2 mph - N/A   Clear
8:55 AM 27.9 °F 19.1 °F 16.3 °F 62% 30.33 in 10.0 mi SSE 9.2 mph - N/A   Clear
9:15 AM 29.1 °F 18.4 °F 16.2 °F 58% 30.32 in 10.0 mi SE 13.8 mph 18.4 mph N/A   Clear
9:35 AM 30.7 °F 20.9 °F 16.0 °F 54% 30.31 in 10.0 mi SSE 12.7 mph 16.1 mph N/A   Clear
9:55 AM 32.0 °F 22.1 °F 15.1 °F 50% 30.31 in 10.0 mi SSE 13.8 mph - N/A   Clear
10:15 AM 32.7 °F 23.4 °F 14.7 °F 48% 30.31 in 10.0 mi South 12.7 mph 19.6 mph N/A   Clear
10:35 AM 34.2 °F 26.2 °F 15.1 °F 46% 30.30 in 10.0 mi SSE 10.4 mph - N/A   Clear
10:55 AM 35.6 °F 26.6 °F 15.1 °F 43% 30.30 in 10.0 mi South 13.8 mph - N/A   Clear
11:15 AM 36.1 °F 27.7 °F 15.4 °F 43% 30.28 in 10.0 mi South 12.7 mph - N/A   Clear
11:35 AM 37.9 °F 28.9 °F 15.3 °F 40% 30.27 in 10.0 mi SE 16.1 mph - N/A   Clear
11:55 AM 39.6 °F 31.3 °F 14.9 °F 37% 30.26 in 10.0 mi SSE 15.0 mph 20.7 mph N/A   Clear
12:15 PM 40.1 °F 32.4 °F 14.7 °F 36% 30.25 in 10.0 mi SSE 13.8 mph 20.7 mph N/A   Clear
12:35 PM 40.5 °F 33.6 °F 14.9 °F 35% 30.24 in 10.0 mi SE 11.5 mph 18.4 mph N/A   Clear
12:55 PM 41.4 °F 34.0 °F 14.0 °F 33% 30.23 in 10.0 mi SE 13.8 mph 20.7 mph N/A   Clear
1:15 PM 42.8 °F 35.8 °F 14.9 °F 32% 30.22 in 10.0 mi SSE 13.8 mph 19.6 mph N/A   Clear
1:35 PM 43.9 °F 36.8 °F 14.0 °F 30% 30.21 in 10.0 mi SSE 15.0 mph 19.6 mph N/A   Scattered Clouds
1:55 PM 44.2 °F 37.6 °F 14.0 °F 30% 30.20 in 10.0 mi SSE 13.8 mph 26.5 mph N/A   Scattered Clouds
2:15 PM 45.1 °F 38.1 °F 14.4 °F 29% 30.19 in 10.0 mi South 16.1 mph - N/A   Scattered Clouds
2:35 PM 45.1 °F 37.9 °F 14.4 °F 29% 30.18 in 10.0 mi South 17.3 mph - N/A   Clear
2:55 PM 44.6 °F 37.4 °F 14.5 °F 30% 30.16 in 10.0 mi SSE 16.1 mph 23.0 mph N/A   Scattered Clouds
3:15 PM 46.2 °F 40.1 °F 15.3 °F 29% 30.15 in 10.0 mi SSE 13.8 mph 20.7 mph N/A   Scattered Clouds
3:35 PM 47.8 °F - 16.0 °F 28% 30.13 in 10.0 mi SSE 16.1 mph 19.6 mph N/A   Clear
3:55 PM 47.7 °F - 15.4 °F 28% 30.11 in 10.0 mi SSE 16.1 mph 25.3 mph N/A   Clear
4:15 PM 47.7 °F - 15.6 °F 28% 30.10 in 10.0 mi SE 18.4 mph 26.5 mph N/A   Clear
4:35 PM 48.6 °F - 16.2 °F 28% 30.10 in 10.0 mi SSE 18.4 mph 25.3 mph N/A   Clear
4:55 PM 48.2 °F - 16.5 °F 28% 30.08 in 10.0 mi SSE 18.4 mph - N/A   Clear
5:35 PM 46.9 °F - 16.7 °F 30% 30.07 in 10.0 mi SSE 16.1 mph 21.9 mph N/A   Mostly Cloudy
6:15 PM 46.4 °F 40.4 °F 17.6 °F 32% 30.06 in 10.0 mi SSE 13.8 mph 19.6 mph N/A   Overcast
7:15 PM 45.5 °F 38.9 °F 19.4 °F 35% 30.02 in 10.0 mi SE 15.0 mph 21.9 mph N/A   Overcast
7:35 PM 45.0 °F 36.6 °F 19.4 °F 36% 30.01 in 10.0 mi SSE 21.9 mph 27.6 mph N/A   Overcast
7:55 PM 45.0 °F 36.9 °F 19.8 °F 37% 30.01 in 10.0 mi SSE 20.7 mph 28.8 mph N/A   Overcast
8:15 PM 44.8 °F 37.7 °F 20.1 °F 37% 30.02 in 10.0 mi SSE 16.1 mph 26.5 mph N/A   Overcast
8:35 PM 44.6 °F 36.9 °F 20.1 °F 38% 30.02 in 10.0 mi SSE 18.4 mph 27.6 mph N/A   Overcast
8:55 PM 44.2 °F 35.7 °F 20.7 °F 39% 30.02 in 10.0 mi SSE 21.9 mph - N/A   Mostly Cloudy
9:35 PM 43.9 °F 36.5 °F 21.0 °F 40% 30.02 in 10.0 mi SSE 16.1 mph 31.1 mph N/A   Scattered Clouds
9:55 PM 43.9 °F 35.9 °F 21.2 °F 41% 30.00 in 10.0 mi SSE 18.4 mph 26.5 mph N/A   Overcast
10:15 PM 43.7 °F 36.3 °F 21.2 °F 41% 29.99 in 10.0 mi SSE 16.1 mph 25.3 mph N/A   Scattered Clouds
10:35 PM 43.7 °F 36.0 °F 21.2 °F 41% 29.99 in 10.0 mi SSE 17.3 mph 20.7 mph N/A   Clear
10:55 PM 43.7 °F 36.3 °F 21.2 °F 41% 29.98 in 10.0 mi SSE 16.1 mph 23.0 mph N/A   Scattered Clouds
11:15 PM 43.7 °F 36.3 °F 21.6 °F 41% 29.99 in 10.0 mi South 16.1 mph 24.2 mph N/A   Scattered Clouds
11:35 PM 43.7 °F 35.7 °F 23.0 °F 44% 29.98 in 10.0 mi South 18.4 mph 26.5 mph N/A Rain Light Rain
11:55 PM 41.0 °F 32.5 °F 28.2 °F 60% 29.98 in 10.0 mi South 17.3 mph 26.5 mph N/A Rain Light Rain